Baltimore, MD

3:51 AM EST on February 08, 2016 (GMT -0500)
Baltimore-Washington International

Weather History for KBWI - August, 2012

Change the Weather History Date:

Thursday, August 30, 2012

  Actual Average Record
Temperature  
Mean Temperature 76 °F 73 °F  
Max Temperature 87 °F 83 °F 101 °F (1953)
Min Temperature 64 °F 63 °F 45 °F (1986)
Degree Days  
Heating Degree Days 0 0  
Month to date heating degree days 0 0  
Since 1 June heating degree days 6 15  
Since 1 July heating degree days 0 0  
Cooling Degree Days 11 8  
Month to date cooling degree days 375 308  
Year to date cooling degree days 1355 1002  
Since 1 June cooling degree days 1163 918  
Growing Degree Days 26 (Base 50)    
Moisture  
Dew Point 65 °F    
Average Humidity 68    
Maximum Humidity 93    
Minimum Humidity 42    
Precipitation  
Precipitation 0.00 in 0.10 in 3.23 in (2001)
Month to date precipitation 5.82 3.19  
Year to date precipitation 22.47 27.75  
Snow  
Snow 0.00 in 0.00 in - ()
Month to date snowfall 0.0 0.0  
Since 1 July snowfall 0.0 0.0  
Snow Depth 0.00 in    
Sea Level Pressure  
Sea Level Pressure 30.08 in    
Wind  
Wind Speed 1 mph (ESE)    
Max Wind Speed 9 mph    
Max Gust Speed 13 mph    
Visibility 10 miles    
Events      
T = Trace of Precipitation, MM = Missing Value Source: NWS Daily Summary

Daily Weather History Graph

Daily Weather History Graph

Search for Another Location

Airport or City:

Trip Planner

Search our weather history database for the weather conditions in past years. The results will help you decide how hot, cold, wet, or windy it might be!

Date:

Astronomy

Aug. 30, 2012 Rise Set
Actual Time 6:33 AM EDT 7:39 PM EDT
Civil Twilight 6:06 AM EDT 8:07 PM EDT
Nautical Twilight 5:33 AM EDT 8:39 PM EDT
Astronomical Twilight 4:59 AM EDT 9:13 PM EDT
Moon 6:53 PM EDT (8/30) 5:32 AM EDT (8/30)
Length of Visible Light 14h 00m
Length of Day
13h 05m
Waxing Gibbous, 99% of the Moon is Illuminated
Aug 30
Waxing Gibbous
Aug 31
Full
Sep 8
Last Quarter
Sep 15
New
Sep 22
First Quarter

Hourly Weather History & Observations

Time (EDT) Temp. Heat Index Dew Point Humidity Pressure Visibility Wind Dir Wind Speed Gust Speed Precip Events Conditions
12:54 AM 68.0 °F - 64.0 °F 87% 30.03 in 10.0 mi Calm Calm - N/A   Partly Cloudy
1:54 AM 66.2 °F - 62.6 °F 88% 30.03 in 10.0 mi Calm Calm - N/A   Clear
2:54 AM 66.0 °F - 63.0 °F 90% 30.04 in 10.0 mi Calm Calm - N/A   Scattered Clouds
3:54 AM 66.0 °F - 63.0 °F 90% 30.04 in 10.0 mi Calm Calm - N/A   Scattered Clouds
4:54 AM 64.9 °F - 63.0 °F 93% 30.04 in 10.0 mi Calm Calm - N/A   Scattered Clouds
5:54 AM 64.9 °F - 62.1 °F 90% 30.06 in 10.0 mi Calm Calm - N/A   Scattered Clouds
6:54 AM 64.0 °F - 62.1 °F 93% 30.06 in 9.0 mi Calm Calm - N/A   Scattered Clouds
7:54 AM 70.0 °F - 63.0 °F 78% 30.08 in 10.0 mi Calm Calm - N/A   Partly Cloudy
8:54 AM 73.9 °F - 62.1 °F 66% 30.10 in 10.0 mi NE 4.6 mph - N/A   Scattered Clouds
9:54 AM 77.0 °F - 64.0 °F 64% 30.11 in 10.0 mi East 4.6 mph - N/A   Scattered Clouds
10:54 AM 80.1 °F 81.7 °F 64.0 °F 58% 30.12 in 10.0 mi Calm Calm - N/A   Scattered Clouds
11:54 AM 82.9 °F 84.0 °F 63.0 °F 51% 30.12 in 10.0 mi Calm Calm - N/A   Partly Cloudy
12:54 PM 84.9 °F 85.4 °F 62.1 °F 46% 30.11 in 10.0 mi Calm Calm - N/A   Scattered Clouds
1:54 PM 84.9 °F 85.0 °F 61.0 °F 44% 30.11 in 10.0 mi Calm Calm - N/A   Scattered Clouds
2:54 PM 86.0 °F 86.1 °F 61.0 °F 43% 30.09 in 10.0 mi Calm Calm - N/A   Scattered Clouds
3:54 PM 84.0 °F 85.8 °F 64.9 °F 53% 30.07 in 10.0 mi Variable 4.6 mph - N/A   Scattered Clouds
4:54 PM 84.0 °F 85.8 °F 64.9 °F 53% 30.06 in 10.0 mi ESE 5.8 mph - N/A   Scattered Clouds
5:54 PM 84.0 °F 87.0 °F 68.0 °F 58% 30.07 in 10.0 mi SE 3.5 mph - N/A   Scattered Clouds
6:54 PM 82.0 °F 85.5 °F 69.1 °F 65% 30.07 in 10.0 mi SE 5.8 mph - N/A   Scattered Clouds
7:54 PM 79.0 °F - 69.1 °F 72% 30.08 in 10.0 mi Calm Calm - N/A   Clear
8:54 PM 77.0 °F - 69.1 °F 76% 30.09 in 10.0 mi Calm Calm - N/A   Clear
9:54 PM 75.0 °F - 69.1 °F 82% 30.10 in 10.0 mi Calm Calm - N/A   Clear
10:54 PM 73.0 °F - 69.1 °F 87% 30.09 in 10.0 mi Calm Calm - N/A   Clear
11:54 PM 72.0 °F - 69.1 °F 91% 30.09 in 9.0 mi Calm Calm - N/A   Clear